Tracking 19638 objects as of 19-May-2019
HD Live streaming from Space Station
objects crossing your sky now

TANSEI 3 (MS-T3)

Track TANSEI 3 (MS-T3) now!
10-day predictions
TANSEI 3 (MS-T3) is classified as:


NORAD ID: 9841
Int'l Code: 1977-012A
Perigee: 801.9 km
Apogee: 3,813.2 km
Inclination: 65.8 °
Period: 134.1 minutes
Semi major axis: 8678 km
RCS: 1.5301 m2 (large)
Launch date: February 19, 1977
Source: Japan (JPN)
Launch site: KAGOSHIMA SPACE CENTER UNIVERSITY OF TOKYO (KSCUT)
aabbcc
Your satellite tracking list
Your tracking list is empty




NASA's NSSDC Master Catalog

Two Line Element Set (TLE):
1  9841U 77012A   19137.80954744 -.00000089  00000-0 -14077-3 0  9992
2  9841  65.7638  68.7790 1734866 273.2202  67.2639 10.73822134656088
Source of the keplerian elements: AFSPC